Tracking 20621 objects as of 30-Mar-2020
HD Live streaming from Space Station
objects crossing your sky now

PEGASUS DEB

Track PEGASUS DEB now!
10-day predictions


NORAD ID: 39926
Int'l Code: 1994-029AFZ
Perigee: 610.9 km
Apogee: 1,071.8 km
Inclination: 81.8 °
Period: 101.6 minutes
Semi major axis: 7212 km
RCS: 0.0112 m2 (small)
Launch date: May 19, 1994
Source: United States (US)
Launch site: AIR FORCE WESTERN TEST RANGE (AFWTR)

Note: This is SATELLITE DEBRIS
aabbcc
Your satellite tracking list
Your tracking list is empty




NASA's NSSDC Master Catalog

Two Line Element Set (TLE):
1 39926U 94029AFZ 20089.56646450  .00000147  00000-0  39195-4 0  9991
2 39926  81.8469 198.8285 0319504 343.5060  25.4736 14.17389874844310
Source of the keplerian elements: AFSPC